DW7102 Weather Reports


time (UTC)temp
C
wind
direction
speed
KPH
gust
KPH
rain 1hr
cm
rain 24hr
cm
rain mn
cm
humidity
%
barometer
mb
20260508070202 3 196 3.2 8.0 0.00 0.00 0.00 77 1004.5
20260508060702 4 303 1.6 4.8 0.00 0.00 0.00 74 1004.4
20260508060202 4 256 1.6 8.0 0.00 0.00 0.00 74 1004.4
20260508053703 4 242 4.8 12.9 0.00 0.00 0.00 74 1004.4
20260508043702 5 250 3.2 8.0 0.00 0.00 0.00 74 1004.3
20260508030204 6 243 8.0 16.1 0.00 0.00 0.00 70 1004.0
20260508023703 7 253 3.2 9.7 0.00 0.00 0.00 67 1003.9
20260508020703 7 247 4.8 12.9 0.00 0.00 0.00 66 1003.8
20260508020203 7 257 4.8 14.5 0.00 0.00 0.00 65 1003.8
20260508010703 8 284 3.2 12.9 0.00 0.00 0.00 61 1003.4
20260508003704 9 260 3.2 11.3 0.00 0.00 0.00 58 1003.1
20260507233704 10 274 1.6 9.7 0.00 0.00 0.00 59 1002.4
20260507233204 10 290 3.2 12.9 0.00 0.00 0.00 58 1002.3
20260507230203 10 304 4.8 20.9 0.00 0.00 0.00 56 1002.3
20260507220203 11 248 4.8 14.5 0.00 0.00 0.00 53 1002.0
20260507213704 11 236 6.4 12.9 0.00 0.00 0.00 52 1002.0
20260507210704 11 236 4.8 9.7 0.00 0.00 0.00 51 1001.8
20260507203204 12 274 3.2 14.5 0.00 0.00 0.00 52 1001.6
20260507200204 12 281 6.4 16.1 0.00 0.00 0.00 52 1001.6
20260507193204 12 284 4.8 19.3 0.00 0.00 0.00 50 1001.7
20260507190704 12 271 8.0 19.3 0.00 0.00 0.00 50 1001.7
20260507190204 12 240 8.0 16.1 0.00 0.00 0.00 49 1001.7
20260507183704 12 252 9.7 16.1 0.00 0.00 0.00 52 1001.9
20260507180204 12 244 8.0 22.5 0.00 0.00 0.00 52 1001.8
20260507163205 13 259 11.3 20.9 0.00 0.00 0.00 49 1002.3
20260507160704 13 263 9.7 19.3 0.00 0.00 0.00 49 1002.6
20260507160205 13 285 4.8 19.3 0.00 0.00 0.00 51 1002.7
20260507150704 12 250 3.2 4.8 0.00 0.00 0.00 59 1003.5
20260507150205 11 289 4.8 14.5 0.00 0.00 0.00 60 1003.5
20260507143207 10 262 4.8 12.9 0.00 0.00 0.00 61 1003.6
20260507133221 8 255 4.8 9.7 0.00 0.00 0.00 66 1003.6
20260507130703 7 272 1.6 4.8 0.00 0.00 0.00 68 1003.7
20260507123703 7 263 1.6 4.8 0.00 0.00 0.00 74 1004.1
20260507113704 5 38 0.0 1.6 0.00 0.00 0.00 82 1004.1
20260507110703 4 40 1.6 4.8 0.00 0.00 0.00 84 1004.2
20260507103704 3 291 0.0 3.2 0.00 0.00 0.00 87 1004.4
20260507103204 3 233 0.0 4.8 0.00 0.00 0.00 89 1004.4
20260507100204 3 261 0.0 4.8 0.00 0.00 0.00 92 1004.3
20260507080700 3 5 0.0 0.0 0.00 0.00 0.00 91 1004.1
20260507080201 3 5 0.0 4.8 0.00 0.00 0.00 91 1004.1
20260507073200 3 25 1.6 1.6 0.00 0.00 0.00 91 1004.0